Weather History for Lahore, Pakistan

Change the Weather History Date:

Saturday, July 13, 2013

  Actual Average Record
Temperature  
Mean Temperature 91 °F -  
Max Temperature 98 °F 93 °F 109 °F (2014)
Min Temperature 84 °F 78 °F 73 °F (2006)
Cooling Degree Days 26    
Growing Degree Days 41 (Base 50)    
Moisture  
Dew Point 77 °F    
Average Humidity 65    
Maximum Humidity 84    
Minimum Humidity 44    
Precipitation  
Precipitation 0.00 in - - ()
Sea Level Pressure  
Sea Level Pressure 29.54 in    
Wind  
Wind Speed 4 mph ()    
Max Wind Speed 8 mph    
Max Gust Speed -    
Visibility 3.1 miles    
Events      
Averages and records for this station are not official NWS values.
T = Trace of Precipitation, MM = Missing Value Source: Averaged Metar Reports

Daily Weather History Graph

Daily Weather History Graph

Search for Another Location

Airport:

Trip Planner

Search our weather history database for the weather conditions in past years. The results will help you decide how hot, cold, wet, or windy it might be!

Date:

Astronomy

Jul. 13, 2013 Rise Set
Actual Time 5:06 AM PKT 7:09 PM PKT
Civil Twilight 4:39 AM PKT 7:36 PM PKT
Nautical Twilight 4:05 AM PKT 8:10 PM PKT
Astronomical Twilight 3:30 AM PKT 8:45 PM PKT
Moon 9:34 AM PKT (7/13) 9:58 PM PKT (7/13)
Length of Visible Light 14h 57m
Length of Day
14h 02m
Waxing Crescent, 22% of the Moon is Illuminated
Jul 13
Waxing Crescent
Jul 16
First Quarter
Jul 22
Full
Jul 29
Last Quarter
Aug 7
New

Hourly Weather History & Observations

Time (PKT) Temp. Heat Index Dew Point Humidity Pressure Visibility Wind Dir Wind Speed Gust Speed Precip Events Conditions
12:25 AM 87.8 °F 102.5 °F 78.8 °F 75% 29.56 in - North - - N/A   Smoke
12:55 AM 86.0 °F 101.9 °F 80.6 °F 84% 29.56 in 2.5 mi Calm Calm - N/A   Smoke
1:30 AM 86.0 °F 101.9 °F 80.6 °F 84% 29.56 in 2.5 mi SSE 2.3 mph - N/A   Smoke
1:55 AM 86.0 °F 101.9 °F 80.6 °F 84% 29.56 in 2.5 mi SE 5.8 mph - N/A   Smoke
2:25 AM 86.0 °F 101.9 °F 80.6 °F 84% 29.56 in 2.5 mi SSE 4.6 mph - N/A   Smoke
2:55 AM 86.0 °F 101.9 °F 80.6 °F 84% 29.56 in 2.5 mi SSE 4.6 mph - N/A   Smoke
3:25 AM 86.0 °F 101.9 °F 80.6 °F 84% 29.59 in 2.5 mi SSE 4.6 mph - N/A   Smoke
4:25 AM 86.0 °F 101.9 °F 80.6 °F 84% 29.56 in 2.5 mi SSE 3.5 mph - N/A   Smoke
4:55 AM 84.2 °F 96.1 °F 78.8 °F 84% 29.56 in 2.5 mi SSE 3.5 mph - N/A   Smoke
5:25 AM 84.2 °F 96.1 °F 78.8 °F 84% 29.56 in 2.5 mi Calm Calm - N/A   Smoke
5:55 AM 84.2 °F 96.1 °F 78.8 °F 84% 29.59 in 2.5 mi SSE 3.5 mph - N/A   Smoke
6:25 AM 86.0 °F 99.3 °F 78.8 °F 79% 29.59 in 2.5 mi South 4.6 mph - N/A   Smoke
6:55 AM 86.0 °F 99.3 °F 78.8 °F 79% 29.59 in 2.5 mi SSE 3.5 mph - N/A   Smoke
7:25 AM 86.0 °F 99.3 °F 78.8 °F 79% 29.62 in 2.5 mi SSE 3.5 mph - N/A   Smoke
7:55 AM 87.8 °F 102.5 °F 78.8 °F 75% 29.62 in 2.5 mi South 3.5 mph - N/A   Smoke
8:25 AM 89.6 °F 104.7 °F 78.8 °F 70% 29.62 in 2.5 mi Calm Calm - N/A   Smoke
8:55 AM 89.6 °F 102.2 °F 77.0 °F 66% 29.62 in 2.5 mi South 5.8 mph - N/A   Smoke
9:25 AM 91.4 °F 105.1 °F 77.0 °F 63% 29.62 in 2.5 mi SSE 5.8 mph - N/A   Smoke
9:55 AM 91.4 °F 105.1 °F 77.0 °F 63% 29.62 in 3.1 mi SSE 4.6 mph - N/A   Smoke
10:25 AM 93.2 °F 107.2 °F 77.0 °F 59% 29.59 in 3.1 mi SE 4.6 mph - N/A   Smoke
10:55 AM 93.2 °F 105.0 °F 75.2 °F 56% 29.59 in 3.1 mi ESE 3.5 mph - N/A   Smoke
11:25 AM 95.0 °F 107.4 °F 75.2 °F 53% 29.59 in 3.7 mi ESE 3.5 mph - N/A   Scattered Clouds
12:25 PM 96.8 °F 112.2 °F 77.0 °F 53% 29.56 in 3.7 mi SE 3.5 mph - N/A   Scattered Clouds
12:55 PM 96.8 °F 109.6 °F 75.2 °F 50% 29.56 in 3.7 mi SE 4.6 mph - N/A   Scattered Clouds
1:25 PM 96.8 °F 109.6 °F 75.2 °F 50% 29.56 in 3.7 mi SE 4.6 mph - N/A   Scattered Clouds
1:55 PM 98.6 °F 111.7 °F 75.2 °F 47% 29.53 in 3.7 mi SE 3.5 mph - N/A   Scattered Clouds
2:25 PM 98.6 °F 111.7 °F 75.2 °F 47% 29.53 in 3.7 mi East 4.6 mph - N/A   Scattered Clouds
2:55 PM 98.6 °F 111.7 °F 75.2 °F 47% 29.50 in 3.7 mi SE 4.6 mph - N/A   Scattered Clouds
3:25 PM 98.6 °F 111.7 °F 75.2 °F 47% 29.50 in 3.7 mi SE 4.6 mph - N/A   Scattered Clouds
3:55 PM 98.6 °F 111.7 °F 75.2 °F 47% 29.47 in 3.7 mi East 5.8 mph - N/A   Scattered Clouds
4:25 PM 98.6 °F 111.7 °F 75.2 °F 47% 29.47 in 3.7 mi East 6.9 mph - N/A   Scattered Clouds
4:55 PM 98.6 °F 109.2 °F 73.4 °F 44% 29.47 in 3.7 mi ESE 5.8 mph - N/A   Scattered Clouds
5:25 PM 96.8 °F 107.3 °F 73.4 °F 47% 29.47 in 3.7 mi SSE 5.8 mph - N/A   Scattered Clouds
5:55 PM 95.0 °F 107.4 °F 75.2 °F 53% 29.44 in 3.7 mi SE 5.8 mph - N/A   Partly Cloudy
6:25 PM 95.0 °F 107.4 °F 75.2 °F 53% 29.44 in 3.7 mi ESE 5.8 mph - N/A   Partly Cloudy
6:55 PM 93.2 °F 102.4 °F 73.4 °F 52% 29.47 in 3.7 mi SE 6.9 mph - N/A   Partly Cloudy
7:25 PM - - - N/A% 29.47 in 3.7 mi SSE 8.1 mph - N/A   Partly Cloudy
7:55 PM 91.4 °F 102.5 °F 75.2 °F 59% 29.47 in 3.1 mi SE 6.9 mph - N/A   Smoke
8:25 PM 91.4 °F 102.5 °F 75.2 °F 59% 29.47 in 3.1 mi SE 5.8 mph - N/A   Smoke
8:55 PM 89.6 °F 98.2 °F 73.4 °F 59% 29.50 in 3.1 mi SSE 4.6 mph - N/A   Smoke
9:30 PM 89.6 °F 98.2 °F 73.4 °F 59% 29.50 in 3.1 mi SE 4.6 mph - N/A   Smoke
9:55 PM 89.6 °F 99.8 °F 75.2 °F 62% 29.50 in 3.1 mi SE 4.6 mph - N/A   Smoke
10:25 PM 87.8 °F 97.6 °F 75.2 °F 66% 29.50 in 3.1 mi SE 4.6 mph - N/A   Smoke
11:00 PM 87.8 °F 97.6 °F 75.2 °F 66% 29.53 in 3.1 mi SSE 4.6 mph - N/A   Smoke
11:25 PM 87.8 °F 97.6 °F 75.2 °F 66% 29.50 in 3.1 mi SSE 4.6 mph - N/A   Smoke
11:55 PM 87.8 °F 97.6 °F 75.2 °F 66% 29.50 in 3.1 mi SSE 5.8 mph - N/A   Smoke